Find Starlink 30116

NORAD ID: 57465 Int'l Des: 2023-107 Owner: SPXS Country: US Constellation: starlink operational
LEOCIRCULAR

Current View

Loading 3D Globe...

About Starlink 30116

Starlink 30116 (NORAD 57465) is a starlink constellation satellite (v2 mini) launched Jul 28, 2023 by SPXS of US. It operates in LEO, CIRCULAR orbit with a mass of 730.00 kg.

Upcoming Passes

Passes for default location (London). Set your location on the main map for personalized predictions.

Altitude History

Loading altitude history...

Two-Line Element Set

1 57465U 23107J 26237.70062586 .00000893 00000-0 41976-4 0 9995
2 57465 43.0025 101.7473 0001535 259.9833 100.0846 15.27576564170992
Epoch: Aug 25, 2026 • Age: 10 hours

Current Status

Altitude 482.3 km
Apogee / Perigee N/A
Velocity 7.63 km/s
Sub-Earth Point 13.95°N, 114.25°W
Launch Date Jul 28, 2023
Age 3 years
Type internet

Technical Details

Classification Payload
Mass 730.00 kg
Dry Mass 700.00 kg
Total Mass 730.00 kg
Length 0.30 m
Diameter 4.10 m
Span 29.00 m
Shape Box + pan
Manufacturer SPXS
Bus Type Starlink V2M
Phase Status In Orbit
Owner/State SPXS/US

Most Searched